{"data":{"norad_id":60287,"intl_designator":"2024-132K","name":"STARLINK-32114","alt_names":[],"object_type":"PAYLOAD","status":"ACTIVE","operator":null,"country":"US","launch_date":"2024-07-28","launch_site_code":"AFETR","launch_vehicle":null,"mission":null,"orbit_class":"UNKNOWN","rcs_meters":null,"size_class":null,"mass_kg":null,"dimensions":null,"purposes":["comms"],"wikipedia_slug":null,"has_3d_model":false,"image_url":null,"decayed_at":null,"tle_current":{"epoch":"2026-05-25T00:30:58.356000Z","epoch_age_seconds":70284,"freshness":"FRESH","line1":"1 60287U 24132K   26145.02150875  .00000337  00000+0  22641-4 0  9992","line2":"2 60287  53.1617  58.1217 0001294  87.8917 272.2233 15.31699174103245","mean_motion":15.31699174,"eccentricity":0.0001294,"inclination_deg":53.1617,"raan_deg":58.1217,"arg_perigee_deg":87.8917,"mean_anomaly_deg":272.2233,"bstar":2.2641e-5,"rev_number":10324,"period_min":94.013238659617,"perigee_km":469.85621248797,"apogee_km":471.62870249157,"semimajor_km":6848.8794574898,"source":"CELESTRAK","updated_at":"2026-05-25T13:38:19.205383Z"}}}